Overview Statistics Trail Chart Weather Telemetry Raw packets
 

This is the latest recevied weather packets stored in our database for station/object K3RUP-1. If no packets are shown the sender has not sent any weather packets the latest 10 day(s).

<< 22 23 24 25 26 27 28 >>
Time Temp. Humidity Pressure Rain* Wind** Luminosity Snow
1788542761 31.11° C 65% 1012.5 hPa 0 mm - 626 W/m² -
1788542461 31.11° C 64% 1012.6 hPa 0 mm - 631 W/m² -
1788542155 30.56° C 65% 1012.5 hPa 0 mm - 620 W/m² -
1788541851 30.56° C 65% 1012.4 hPa 0 mm - 624 W/m² -
1788541546 30.56° C 65% 1012.8 hPa 0 mm - 642 W/m² -
1788541243 30.56° C 68% 1012.6 hPa 0 mm - 621 W/m² -
1788540941 30° C 66% 1012.6 hPa 0 mm - 612 W/m² -
1788540641 30.56° C 66% 1012.7 hPa 0 mm - 648 W/m² -
1788540336 30° C 69% 1012.8 hPa 0 mm - 665 W/m² -
1788540032 30° C 69% 1013 hPa 0 mm - 649 W/m² -
1788539731 30° C 71% 1013.1 hPa 0 mm - 599 W/m² -
1788539427 30° C 71% 1012.9 hPa 0 mm - 593 W/m² -
1788539121 30° C 68% 1013.1 hPa 0 mm - 642 W/m² -
1788538817 30° C 72% 1013.1 hPa 0 mm - 502 W/m² -
1788538511 29.44° C 71% 1013.2 hPa 0 mm - 559 W/m² -
1788538234 29.44° C 70% 1013.3 hPa 0 mm - 497 W/m² -
1788537902 28.89° C 71% 1013 hPa 0 mm - 608 W/m² -
1788537597 28.89° C 72% 1013.1 hPa 0 mm - 628 W/m² -
1788537297 28.89° C 74% 1013.3 hPa 0 mm - 621 W/m² -
1788536996 28.89° C 72% 1013.3 hPa 0 mm - 607 W/m² -
1788536690 28.33° C 74% 1013.2 hPa 0 mm - 585 W/m² -
1788536385 28.33° C 73% 1013.3 hPa 0 mm - 119 W/m² -
1788536080 28.33° C 73% 1013.4 hPa 0 mm - 278 W/m² -
1788535777 28.33° C 75% 1013.5 hPa 0 mm - 127 W/m² -
1788535472 27.78° C 75% 1013.4 hPa 0 mm - 118 W/m² -

* Rain latest hour (hover to see other rain measurements)
** Current wind speed in m/s (hover to see current wind gust speed)